DELTA 1 DEB

Satellite information

Favourite Embed

Satellite Type and Status

DEBRISIN ORBIT

Key statistics

Satellite DELTA 1 DEB at a glance.

Uptime

18350

Days in orbit

Revolutions

≈ 13.4

Per day

Orbit

SSO

Sun Synchronous Orbit

Inclination

99.2

Latest

Satellite identification and parameters

Extended collection of information and parameters for DELTA 1 DEB.

Object identification

Identified? True

Debris? True

Object name: DELTA 1 DEB

International designator: 1975-052BE

Object number (NORAD): 21336

Object ID (CCSDS): 21336

Country: UNITED STATES OF AMERICA (US)

Current information (Y/N): Y

RCS size: SMALL

Orbital parameters

Period: 107.677 minutes

Inclination: 99.2026 deg

SMA: 7497.362 km

Apoapsis: 1239.338 km

Periapsis: 999.116 km

RAAN: 165.9076 deg

Eccentricy: 0.01602045

Argument of periapsis: 220.1876 deg

Mean anomaly: 195.7364 deg

Mean motion: 13.37334382 rev/day

Mean motion (dot): 0.00001195 rev/day2

B* drag term: 0.0021941059 1/REarth

Two-line elements (TLE)

Creation date: Sept. 7, 2025, 3:09 a.m.

Reference frame: TEME

Reference center: EARTH

Epoch: Sept. 6, 2025, 5:28 p.m. UTC

TLE line 0: 0 DELTA 1 DEB

TLE line 1: 1 21336U 75052BE 25249.72815692 .00001195 00000-0 21941-2 0 9991

TLE line 2: 2 21336 99.2026 165.9076 0160204 220.1876 195.7364 13.37334382653228

Live tracking on map

Real-time ground track for satellite DELTA 1 DEB.

In-orbit conjunctions

A list of the most updated potential collisions computed for object DELTA 1 DEB.

Target Orbit TCA Probability of collision Miss distance Type
SL-8 R/B LEO 2024-07-27 07:38:28 0.0001194504 861.0 (m) ROCKET BODY

Associated space launch

Experimental meteorological satellite

DELTA 1 DEB was lifted into orbit during the mission ‘Delta 2910 | Nimbus 6’, on board a Delta 2910 space rocket.

The launch took place on June 12, 1975, 8:12 a.m. from Space Launch Complex 2W.

For more information about the launch, click the button.

Launch to space Delta 2910 | Nimbus 6
Delta 2910 | Nimbus 6

Agency: N/A

Status: Launch Successful

Launch date: June 12, 1975, 8:12 a.m. UTC

Rocket: Delta 2910

Launch pad: Space Launch Complex 2W

Location: Vandenberg SFB, CA, USA

...

Latest news about this satellite

There are no fresh news available about this satellite. Check back as we update our databases every day.


Newsletter sign-up

Weekly statistics, charts and insights to help you stay on top of the space industry.